TimeCDT,TemperatureF,Dew PointF,Humidity,Sea Level PressureIn,VisibilityMPH,Wind Direction,Wind SpeedMPH,Gust SpeedMPH,PrecipitationIn,Events,Conditions,WindDirDegrees,DateUTC
12:54 AM,36.0,21.0,55,30.20,10.0,South,5.8,-,N/A,,Overcast,180,2013-03-30 05:54:00
1:54 AM,36.0,21.9,57,30.18,10.0,South,5.8,-,N/A,,Overcast,180,2013-03-30 06:54:00
2:54 AM,37.0,21.9,54,30.16,10.0,South,5.8,-,N/A,,Overcast,170,2013-03-30 07:54:00
3:54 AM,37.9,21.9,53,30.14,10.0,South,5.8,-,N/A,,Overcast,180,2013-03-30 08:54:00
4:54 AM,37.0,23.0,57,30.13,10.0,SSW,4.6,-,N/A,,Overcast,200,2013-03-30 09:54:00
5:54 AM,37.9,23.0,55,30.10,10.0,South,5.8,-,N/A,,Overcast,190,2013-03-30 10:54:00
6:54 AM,37.0,23.0,57,30.08,10.0,South,5.8,-,N/A,,Overcast,170,2013-03-30 11:54:00
7:54 AM,37.0,24.1,59,30.06,10.0,South,5.8,-,N/A,,Overcast,180,2013-03-30 12:54:00
8:54 AM,39.0,25.0,57,30.03,10.0,South,11.5,-,N/A,,Overcast,190,2013-03-30 13:54:00
9:54 AM,39.9,26.1,58,30.01,10.0,SSW,9.2,19.6,N/A,,Overcast,200,2013-03-30 14:54:00
10:54 AM,39.9,27.0,60,30.01,10.0,SSW,4.6,-,0.00,,Overcast,210,2013-03-30 15:54:00
11:54 AM,42.1,28.9,60,29.98,10.0,SSW,9.2,-,N/A,,Overcast,200,2013-03-30 16:54:00
12:54 PM,43.0,30.0,60,29.95,10.0,SSW,12.7,-,N/A,,Overcast,200,2013-03-30 17:54:00
1:54 PM,44.1,32.0,63,29.92,10.0,South,10.4,-,0.01,Rain,Light Rain,190,2013-03-30 18:54:00
2:54 PM,45.0,30.0,56,29.89,10.0,South,8.1,-,0.00,,Overcast,190,2013-03-30 19:54:00
3:50 PM,44.6,33.8,66,29.85,6.0,SSW,9.2,-,0.00,Rain,Light Rain,210,2013-03-30 20:50:00
3:54 PM,44.1,34.0,68,29.88,4.0,SSW,9.2,-,0.01,Rain,Light Rain,210,2013-03-30 20:54:00
4:31 PM,41.0,37.4,87,29.85,2.5,SSW,9.2,-,0.06,Rain,Rain,210,2013-03-30 21:31:00
4:47 PM,41.0,37.4,87,29.85,2.0,SSW,8.1,-,0.11,Rain,Rain,210,2013-03-30 21:47:00
4:54 PM,41.0,37.9,89,29.88,2.0,SSW,10.4,-,0.13,Rain,Rain,200,2013-03-30 21:54:00
5:43 PM,41.0,39.2,93,29.83,1.8,SSW,6.9,-,0.03,,Overcast,200,2013-03-30 22:43:00
5:54 PM,41.0,39.0,93,29.86,1.8,SSW,6.9,-,0.04,Rain,Light Rain,210,2013-03-30 22:54:00
6:03 PM,41.0,39.2,93,29.83,1.5,SSW,6.9,-,0.00,Rain,Light Rain,210,2013-03-30 23:03:00
6:18 PM,41.0,39.2,93,29.83,1.2,SW,4.6,-,0.00,Rain,Light Rain,230,2013-03-30 23:18:00
6:24 PM,41.0,39.2,93,29.83,1.0,SW,4.6,-,0.00,,Overcast,230,2013-03-30 23:24:00
6:34 PM,39.2,39.2,100,29.82,0.5,SSW,5.8,-,0.01,Fog-Rain,Light Rain,210,2013-03-30 23:34:00
6:54 PM,39.9,39.0,97,29.85,0.2,SSW,6.9,-,0.01,Fog-Rain,Light Rain,210,2013-03-30 23:54:00
7:24 PM,41.0,39.2,93,29.82,1.0,WSW,4.6,-,0.01,Rain,Light Rain,250,2013-03-31 00:24:00
7:42 PM,41.0,39.2,93,29.82,1.5,West,8.1,-,0.01,Rain,Light Rain,270,2013-03-31 00:42:00
7:54 PM,41.0,39.9,96,29.85,1.0,West,6.9,-,0.01,,Overcast,280,2013-03-31 00:54:00
8:13 PM,39.2,39.2,100,29.82,0.5,WNW,6.9,-,N/A,Fog,Fog,290,2013-03-31 01:13:00
8:24 PM,39.2,39.2,100,29.82,1.2,WNW,6.9,-,N/A,,Overcast,290,2013-03-31 01:24:00
8:49 PM,39.2,37.4,93,29.83,1.0,West,8.1,-,N/A,,Overcast,280,2013-03-31 01:49:00
8:54 PM,39.0,37.9,96,29.86,1.0,WNW,6.9,-,N/A,,Overcast,290,2013-03-31 01:54:00
9:04 PM,39.2,37.4,93,29.83,0.8,WNW,6.9,-,N/A,,Overcast,290,2013-03-31 02:04:00
9:41 PM,39.2,37.4,93,29.83,1.2,NW,10.4,-,N/A,,Overcast,310,2013-03-31 02:41:00
9:54 PM,37.9,37.0,97,29.86,2.5,NW,8.1,-,N/A,,Overcast,310,2013-03-31 02:54:00
10:29 PM,37.4,35.6,93,29.83,3.0,NW,8.1,-,N/A,,Overcast,310,2013-03-31 03:29:00
10:54 PM,37.0,35.1,93,29.86,5.0,WNW,5.8,-,N/A,,Overcast,290,2013-03-31 03:54:00
11:15 PM,37.4,35.6,93,29.82,5.0,WNW,4.6,-,N/A,,Overcast,290,2013-03-31 04:15:00
11:54 PM,37.0,35.1,93,29.84,5.0,West,3.5,-,N/A,,Overcast,270,2013-03-31 04:54:00